Weather History for PHLI - January, 2012

Change the Weather History Date:

Sunday, January 8, 2012

  Actual Average Record
Temperature  
Mean Temperature 72 °F 72 °F  
Max Temperature 79 °F 78 °F 84 °F (1987)
Min Temperature 64 °F 66 °F 53 °F (1953)
Degree Days  
Heating Degree Days 0 0  
Month to date heating degree days 0 0  
Since 1 July heating degree days 0 0  
Cooling Degree Days 7 7  
Month to date cooling degree days 65 56  
Year to date cooling degree days 65 56  
Growing Degree Days 22 (Base 50)    
Moisture  
Dew Point 62 °F    
Average Humidity 70    
Maximum Humidity 87    
Minimum Humidity 52    
Precipitation  
Precipitation T in 0.14 in 3.11 in (1950)
Month to date precipitation 0.07 1.06  
Year to date precipitation 0.07 1.06  
Snow  
Snow 0.00 in - - ()
Month to date snowfall 0.0  
Since 1 July snowfall 0.0  
Snow Depth 0.00 in    
Sea Level Pressure  
Sea Level Pressure 30.09 in    
Wind  
Wind Speed 5 mph (WNW)    
Max Wind Speed 10 mph    
Max Gust Speed 13 mph    
Visibility 10 miles    
Events Rain    
T = Trace of Precipitation, MM = Missing Value Source: NWS Daily Summary

Daily Weather History Graph

Daily Weather History Graph

Search for Another Location

Airport or City:

Trip Planner

Search our weather history database for the weather conditions in past years. The results will help you decide how hot, cold, wet, or windy it might be!

Date:

Astronomy

Jan. 08, 2012 Rise Set
Actual Time 7:18 AM HST 6:10 PM HST
Civil Twilight 6:53 AM HST 6:34 PM HST
Nautical Twilight 6:26 AM HST 7:01 PM HST
Astronomical Twilight 5:58 AM HST 7:29 PM HST
Moon 6:02 PM HST (1/8) 6:46 AM HST (1/8)
Length of Visible Light 11h 40m
Length of Day
10h 52m
Full, 100% of the Moon is Illuminated
Jan 8
Full
Jan 8
Full
Jan 15
Last Quarter
Jan 22
New
Jan 30
First Quarter

Hourly Weather History & Observations

Time (HST) Temp. Dew Point Humidity Pressure Visibility Wind Dir Wind Speed Gust Speed Precip Events Conditions
12:53 AM 66.9 °F 62.1 °F 84% 30.10 in 10.0 mi West 4.6 mph - N/A   Mostly Cloudy
1:53 AM 66.9 °F 62.1 °F 84% 30.09 in 10.0 mi WNW 4.6 mph - N/A   Mostly Cloudy
2:53 AM 66.9 °F 62.1 °F 84% 30.08 in 10.0 mi West 3.5 mph - N/A   Overcast
3:53 AM 66.0 °F 62.1 °F 87% 30.07 in 10.0 mi West 4.6 mph - N/A   Mostly Cloudy
4:26 AM 66.2 °F 62.6 °F 88% 30.07 in 10.0 mi WNW 4.6 mph - N/A   Overcast
4:53 AM 66.0 °F 62.1 °F 87% 30.07 in 10.0 mi WSW 5.8 mph - N/A   Overcast
5:23 AM 66.2 °F 60.8 °F 83% 30.08 in 10.0 mi West 4.6 mph - N/A   Overcast
5:53 AM 64.9 °F 61.0 °F 87% 30.07 in 10.0 mi SSW 4.6 mph - N/A   Mostly Cloudy
6:53 AM 64.9 °F 61.0 °F 87% 30.08 in 10.0 mi West 3.5 mph - 0.01 in   Overcast
6:57 AM 64.4 °F 60.8 °F 88% 30.09 in 10.0 mi West 5.8 mph - N/A   Scattered Clouds
7:53 AM 64.9 °F 60.1 °F 84% 30.10 in 10.0 mi WNW 8.1 mph - N/A   Partly Cloudy
8:53 AM 68.0 °F 60.1 °F 76% 30.12 in 10.0 mi West 5.8 mph - N/A   Mostly Cloudy
9:53 AM 73.9 °F 61.0 °F 64% 30.13 in 10.0 mi Calm Calm - N/A   Overcast
10:53 AM 78.1 °F 59.0 °F 52% 30.12 in 10.0 mi NE 5.8 mph - N/A   Clear
11:53 AM 78.1 °F 59.0 °F 52% 30.11 in 10.0 mi NE 8.1 mph - N/A   Scattered Clouds
12:53 PM 79.0 °F 61.0 °F 54% 30.08 in 10.0 mi ENE 6.9 mph - N/A   Scattered Clouds
1:53 PM 77.0 °F 61.0 °F 58% 30.06 in 10.0 mi NE 6.9 mph - N/A   Mostly Cloudy
2:53 PM 78.1 °F 62.1 °F 58% 30.05 in 10.0 mi ENE 8.1 mph - N/A   Clear
3:53 PM 75.9 °F 63.0 °F 64% 30.05 in 10.0 mi ENE 4.6 mph - N/A   Partly Cloudy
4:53 PM 73.9 °F 63.0 °F 68% 30.06 in 10.0 mi East 3.5 mph - N/A   Scattered Clouds
5:53 PM 73.0 °F 63.0 °F 71% 30.06 in 10.0 mi ESE 3.5 mph - N/A   Partly Cloudy
6:53 PM 72.0 °F 63.0 °F 73% 30.08 in 10.0 mi Calm Calm - 0.01 in   Partly Cloudy
7:53 PM 69.1 °F 62.1 °F 78% 30.09 in 10.0 mi West 4.6 mph - N/A   Partly Cloudy
8:53 PM 68.0 °F 63.0 °F 84% 30.12 in 10.0 mi WNW 4.6 mph - N/A   Mostly Cloudy
9:53 PM 66.9 °F 62.1 °F 84% 30.14 in 10.0 mi NW 4.6 mph - N/A   Partly Cloudy
10:49 PM 68.0 °F 64.4 °F 88% 30.14 in 10.0 mi WNW 4.6 mph - 0.00 in Rain Light Rain
10:53 PM 68.0 °F 64.0 °F 87% 30.14 in 10.0 mi West 5.8 mph - 0.00 in   Overcast
11:02 PM 68.0 °F 64.4 °F 88% 30.14 in 10.0 mi WNW 4.6 mph - N/A   Overcast
11:53 PM 70.0 °F 66.0 °F 87% 30.13 in 10.0 mi North 4.6 mph - N/A   Overcast